Weather in Mauren

Liechtenstein     47°13′07″N   9°32′40″E
temp.,
°C
wind,
m/s
gust,
m/s
humid.,
%
clouds,
%
prec.,
mm/h
press.,
hPa
HPBL,
m
17 may, mon
mon1723:00+6ssw2298100 3.3 1007108
02:00+4w119352 8.1 100920
05:00+4w119392 0.4 101028
08:00+6wnw138722 0.8 1011348
11:00+6wnw139236 1.9 1012484
14:00+7nnw2390100 4.1 1013667
17:00+6wsw1393100 2.6 1014398
20:00+7s119170 4.0 101423
18 may, tue
tue1823:00+5s1296100 2.3 101785
02:00+5s239771 3.0 1018120
05:00+4sw1297100 0.5 101762
08:00+6sw129189 1.3 1018333
11:00+8sw1277100 0.9 10171044
14:00+7s1183100 2.6 1016360
17:00+7w1188100 1.9 1017511
20:00+5wsw239655 3.8 1019108
19 may, wed
wed1923:00+2wsw119716 1.2 102117
02:00+1ssw2295100 1.3 102234
05:00+2ssw229586 0.1 102236
08:00+5ssw118785 0.1 1022176
11:00+9nw127049 0.8 10201106
14:00+10nnw2277100 3.3 1018905
17:00+7nnw2290100 2.9 1019699
20:00+5s119569 4.9 1020160
20 may, thu
thu2023:00+3wsw2298100 0.6 102282
02:00+3sw1398100 2.8 1023470
05:00+3sw1399100 0.9 1024174
08:00+3nw1197100 1.5 1025478
11:00+2wsw1299100 6.4 1028258
14:00+5sse019770 7.8 1027298
17:00+9nnw128024 0.9 1025808
20:00+7w01929 1.4 102610
21 may, fri
fri2123:00+2s22964 0.1 102822
02:00+1s33965 0.1 102749
05:000s34945 0.0 102658
08:00+5s3483100 0.0 1022137
11:00+13s1349100 0.0 1018735
14:00+18nw033698 0.0 10151916
17:00+18n23425 0.0 10121422
20:00+12nw11796 0.0 101311